Location: Kiltepe
(36.4752°N, 30.0120°E)
Time: 11:04:23
(UTC+00:00)

Cosmos 1459 Rocket - Pass Details

Date: 03 August 2024
Orbit: 936 x 999 km, 83.0° (Epoch: 14 September)

Event Time Altitude Azimuth Distance (km) Brightness Sun altitude
Exits shadow 21:03:21 55° 315° (NW) 1,159 4.5 -34.3°
Drops below altitude 10° 21:08:36 10° 359° (N) 2,717 7.1 -34.6°
Sets 21:11:09 0° 3° (N) 3,658 7.9 -34.8°
